FALCON 9 R/B, 42433

Orbit data source: Space-Track

FALCON 9 R/B, 42433 is space debris in HEO originally from a launch on Thu, 30 Mar 2017 UTC launched from the Air Force Eastern Test Range (AFETR). Debris objects in space refer to the collection of defunct objects orbiting the Earth. Examples of debris include non-operational satellites, rocket bodies, and fragments generated from explosions, collisions, or faulty payload assembly.

Loading next visibility...
FALCON 9 R/B details
Identifier
42433, 2017-017B
Orbit
HEO
Last TLE update9 hours ago
Origin
Flag of USSpaceX (US)
ManufacturerSpaceX
MissionSpacecraft
Bus & MotorF9ST2, Unknown motor
Mass~4,000 kg wet, ~4,000 kg dry
Launch date (UTC)
2017-03-30 (8 years ago)
Launch vehicleUnknown
Launch site
Air Force Eastern Test Range (AFETR)
Object type
Payload
Rocket body
Debris
Shape & HBRCyl, 15.53 m
Radar Cross Section39.980 m², Large (>1 m²)

Expand to show TLE details & history

TLE from 9 hours ago
0 FALCON 9 R/B
1 42433U 17017B   24361.23785605  .00016361  00000-0  26269-2 0  9998
2 42433  25.7399 174.2251 6794083 145.8730 286.9333  2.92522355 74099
Epoch: 2024-12-26T05:42Z
Definitive object data (Epoch: 2024-12-26T05:42:30.762Z)
Latitude-0.00002°
Longitude-6.57928°
Altitude18,988.197 km
Speed3.482 km/s
True Right ascension11h 37m 04s
True Declination0° 00' 00"
Sunlit
Object was in daylight at TLE epoch
Visualization TLE readout
Latitude17.31541°
Longitude33.45383°
Altitude6,730.088 km
Speed6.444 km/s
Apparent Right ascension14h 13m 37s
Apparent Declination-1° 21' 54"
Sunlit
Object is in daylight
Visualization observer readout
Local Sidereal Time14:22:46
Azimuth183.466° SSW
Elevation48.666°
Doppler factor1
Orbital elements
Apogee altitude28,311.554 km
Perigee altitude243.973 km
Semi-major axis20,655.901 km
Eccentricity0.6794083
Inclination25.7399°
RAAN174.2251°
Arg. of periapsis145.873°
True anomaly214.1924°
Mean anomaly286.9333°
Eccentric anomaly250.28736°
Mean motion0.7311 °/min
BSTAR0.0026269
Orbital period492.41 mins
Loading maneuver chart data...
Loading historical data...
Loading historical data...
Loading historical data...
Loading historical data...
Loading historical data...
Loading historical data...
Loading historical data...
Other satellites on launch #17 in the year 2017 (2017-03-30 UTC)

FALCON 9 R/B Visibility forecast

Observer location: undefined°, undefined

Span
Click to sort rows by Start time (UTC) header in descending order
Start Az.
Max El. time (UTC)
Max El. Az.
Max El.
End time (UTC)
End Az.
19 mins2024-12-26 15:00:50.724Z183.459° SSW2024-12-26 15:03:50.724Z174.612° S36.998°2024-12-26 15:19:50.724Z105.667° ESE
302 mins2024-12-27 09:58:50.724Z205.917° SW2024-12-27 15:00:50.724Z227.148° WSW27.323°2024-12-27 15:00:50.724Z227.148° WSW
|